FW8702 Weather Reports


Display with metric or nautical units.
time (UTC)temp
F
wind
direction
speed
MPH
gust
MPH
rain 1hr
in
rain 24hr
in
rain mn
in
humidity
%
barometer
mb
20210306014648 43 303 1.0 3.0 0.00 0.00 0.00 84 1022.2
20210306013129 43 194 0.0 0.0 0.00 0.00 0.00 83 1022.1
20210306011613 43 194 0.0 2.0 0.00 0.00 0.00 84 1022.0
20210306004540 43 194 0.0 3.0 0.00 0.00 0.00 83 1021.9
20210306003322 43 194 0.0 0.0 0.00 0.00 0.00 83 1021.6
20210306001619 43 194 1.0 4.0 0.00 0.00 0.00 82 1021.5
20210305234557 44 83 0.0 3.0 0.00 0.00 0.00 81 1021.3
20210305233042 44 83 0.0 2.0 0.00 0.00 0.00 81 1021.1
20210305231611 45 83 0.0 2.0 0.00 0.00 0.00 81 1020.9
20210305224610 45 83 0.0 3.0 0.00 0.00 0.00 81 1020.6
20210305223055 45 95 1.0 3.0 0.00 0.00 0.00 78 1020.6
20210305221540 46 95 1.0 3.0 0.00 0.00 0.00 76 1020.4
20210305214624 48 95 1.0 2.0 0.00 0.00 0.00 74 1020.2
20210305213128 48 95 0.0 2.0 0.00 0.00 0.00 74 1020.0
20210305211635 49 106 1.0 3.0 0.00 0.00 0.00 72 1019.9
20210305204711 49 107 0.0 1.0 0.00 0.00 0.00 72 1019.5
20210305203113 49 107 0.0 1.0 0.00 0.00 0.00 71 1019.3
20210305201628 49 107 1.0 3.0 0.00 0.00 0.00 70 1019.1
20210305194603 50 96 1.0 2.0 0.00 0.00 0.00 69 1018.7
20210305193154 51 96 0.0 2.0 0.00 0.00 0.00 67 1018.6
20210305191708 52 96 0.0 0.0 0.00 0.00 0.00 65 1018.3
20210305184546 54 93 0.0 3.0 0.00 0.00 0.00 61 1017.9
20210305183213 54 126 1.0 3.0 0.00 0.00 0.00 60 1017.8
20210305181601 54 126 1.0 4.0 0.00 0.00 0.00 60 1017.5
20210305174616 55 199 0.0 2.0 0.00 0.00 0.00 58 1017.2
20210305173115 55 199 1.0 3.0 0.00 0.00 0.00 57 1016.9
20210305171655 56 199 0.0 2.0 0.00 0.00 0.00 56 1016.8
20210305164619 58 152 1.0 4.0 0.00 0.00 0.00 54 1016.3
20210305163849 58 169 1.0 5.0 0.00 0.00 0.00 52 1016.3
20210305154607 59 231 1.0 5.0 0.00 0.00 0.00 51 1015.9
20210305153205 59 166 3.0 12.0 0.00 0.00 0.00 51 1015.8
20210305151611 59 243 3.0 11.0 0.00 0.00 0.00 51 1015.7
20210305144606 60 212 4.0 11.0 0.00 0.00 0.00 51 1015.5
20210305143107 60 252 7.0 12.0 0.00 0.00 0.00 47 1015.5
20210305141629 60 225 7.0 11.0 0.00 0.00 0.00 48 1015.5
20210305134617 59 276 7.0 11.0 0.00 0.00 0.00 47 1015.5
20210305133134 59 248 6.0 11.0 0.00 0.00 0.00 46 1015.6
20210305131554 59 240 7.0 11.0 0.00 0.00 0.00 45 1015.6
20210305124633 58 268 4.0 7.0 0.00 0.00 0.00 45 1016.0
20210305123423 58 236 3.0 6.0 0.00 0.00 0.00 50 1016.2
20210305121654 57 167 3.0 4.0 0.00 0.00 0.00 51 1016.5
20210305114657 56 225 2.0 9.0 0.00 0.00 0.00 54 1016.8
20210305113155 56 180 2.0 5.0 0.00 0.00 0.00 53 1017.0
20210305111639 55 240 4.0 9.0 0.00 0.00 0.00 55 1017.0
20210305104557 54 240 3.0 7.0 0.00 0.00 0.00 59 1017.2
20210305103206 53 222 2.0 6.0 0.00 0.00 0.00 61 1017.4
20210305101558 52 40 1.0 3.0 0.00 0.00 0.00 62 1017.4
20210305094702 51 257 1.0 3.0 0.00 0.00 0.00 65 1017.6
20210305093149 50 253 2.0 7.0 0.00 0.00 0.00 65 1017.7
20210305091628 49 355 3.0 5.0 0.00 0.00 0.00 67 1017.8
20210305084618 47 349 3.0 5.0 0.00 0.00 0.00 69 1017.9
20210305083132 47 355 2.0 4.0 0.00 0.00 0.00 72 1017.9
20210305081604 46 329 0.0 3.0 0.00 0.00 0.00 76 1018.0
20210305074649 44 341 4.0 6.0 0.00 0.00 0.00 76 1018.2
20210305073053 43 355 2.0 4.0 0.00 0.00 0.00 79 1018.2
20210305071542 41 327 3.0 4.0 0.00 0.00 0.00 80 1018.0
20210305064556 40 324 0.0 3.0 0.00 0.00 0.00 82 1018.0
20210305063158 41 324 2.0 4.0 0.00 0.00 0.00 81 1017.9
20210305061629 41 323 0.0 5.0 0.00 0.00 0.00 81 1017.8
20210305054631 40 355 3.0 5.0 0.00 0.00 0.00 83 1018.0
20210305053050 40 327 4.0 5.0 0.00 0.00 0.00 84 1018.1
20210305051600 39 332 0.0 3.0 0.00 0.00 0.00 83 1018.1
20210305044625 41 333 3.0 5.0 0.00 0.00 0.00 81 1018.2
20210305043132 41 325 2.0 5.0 0.00 0.00 0.00 81 1018.3
20210305041550 41 331 3.0 6.0 0.00 0.00 0.00 81 1018.3
20210305034650 41 324 3.0 8.0 0.00 0.00 0.00 83 1018.4
20210305033132 40 326 3.0 5.0 0.00 0.00 0.00 85 1018.4
20210305031559 40 340 3.0 4.0 0.00 0.00 0.00 85 1018.4
20210305024552 40 350 3.0 6.0 0.00 0.00 0.00 87 1018.5
20210305023113 37 334 3.0 5.0 0.00 0.00 0.00 91 1018.5
20210305021651 37 5 0.0 4.0 0.00 0.00 0.00 89 1018.7